Date String (YYYY-MM-DD hh:mm:ss) UTC,Instrument flags,absolute air pressure of the measurement (hPa),sample flow rate (lpm),inlet stack bypass flow (lpm),air temperature of the measurement (°C),ambient temperature measured by the external sensor (°C),aerosol sample conditioner tube jacket temperature (°C),OPC LED temperature (°C),internal box temperature (°C),relative humidity of the measurement (%),span deviation,mass concentration of particles derived from Lorenz-Mie calculation of OPC scattering (μg/m³),mass concentration of particles derived from Lorenz-Mie calculation of OPC scattering (μg/m³),mass concentration of particles derived from Lorenz-Mie calculation of OPC scattering (μg/m³)
DateTimeUTC,F1_M11,P_M11,Q1_M11,Q2_M11,T1_M11,T2_M11,T3_M11,T4_M11,T5_M11,U1_M11,ZSPAN_M11,X2_M11,X0_M11,X1_M11
2024-02-04 13:00:00,SystemResetWarning,0824.7,5.00,000.00,018.3,017.7,000.0,026.9,020.0,19.9,0000.0,0001.35,0003.73,0001.02
2024-02-04 13:01:00,SystemResetWarning,0824.7,5.00,000.00,018.3,017.7,000.0,026.9,020.0,19.9,0000.0,0001.35,0004.19,0001.02
2024-02-04 13:02:00,SystemResetWarning,0824.7,4.99,000.00,018.3,017.7,000.0,026.9,020.0,19.9,0000.0,0001.33,0004.16,0001.01
2024-02-04 13:03:00,SystemResetWarning,0824.7,4.99,000.00,018.3,017.6,000.0,026.9,020.0,19.9,0000.0,0001.28,0004.11,0000.99
2024-02-04 13:04:00,SystemResetWarning,0824.7,5.00,000.00,018.3,017.6,000.0,026.9,020.0,19.9,0000.0,0001.24,0004.04,0000.96
2024-02-04 13:05:00,SystemResetWarning,0824.7,5.02,000.00,018.3,017.6,000.0,026.9,020.0,19.7,0000.0,0001.24,0002.72,0000.94
2024-02-04 13:06:00,SystemResetWarning,0824.8,5.00,000.00,018.3,017.8,000.0,027.0,020.2,19.6,0000.0,0001.24,0002.60,0000.92
2024-02-04 13:07:00,SystemResetWarning,0824.8,4.98,000.00,018.5,018.5,000.0,027.1,020.6,19.5,0000.0,0001.18,0002.50,0000.89
2024-02-04 13:08:00,SystemResetWarning,0824.8,4.99,000.00,018.7,019.1,000.0,027.1,021.0,19.3,0000.0,0001.12,0002.37,0000.84
2024-02-04 13:09:00,SystemResetWarning,0824.7,5.00,000.00,018.8,019.1,000.0,027.1,020.9,19.1,0000.0,0001.05,0002.26,0000.80
2024-02-04 13:10:00,SystemResetWarning,0824.7,5.00,000.00,018.8,018.9,000.0,027.0,020.7,19.2,0000.0,0000.96,0002.07,0000.76
2024-02-04 13:11:00,SystemResetWarning,0824.7,4.99,000.00,018.8,018.7,000.0,027.0,020.6,19.1,0000.0,0000.89,0001.86,0000.73
2024-02-04 13:12:00,SystemResetWarning,0824.7,5.01,000.00,018.8,018.6,000.0,027.0,020.5,19.0,0000.0,0000.86,0001.24,0000.72
2024-02-04 13:13:00,SystemResetWarning,0824.7,5.00,000.00,018.7,018.5,000.0,027.0,020.4,19.0,0000.0,0000.86,0001.21,0000.72
2024-02-04 13:14:00,SystemResetWarning,0824.8,5.00,000.00,018.7,018.3,000.0,027.0,020.4,19.1,0000.0,0000.84,0001.16,0000.72
2024-02-04 13:15:00,SystemResetWarning,0824.7,5.00,000.00,018.7,018.3,000.0,027.0,020.3,19.0,0000.0,0000.83,0001.13,0000.71
2024-02-04 13:16:00,SystemResetWarning,0824.7,4.99,000.00,018.6,018.2,000.0,026.9,020.3,18.8,0000.0,0000.80,0001.05,0000.70
2024-02-04 13:17:00,SystemResetWarning,0824.8,5.00,000.00,018.6,018.1,000.0,026.9,020.2,18.7,0000.0,0000.77,0000.97,0000.69
2024-02-04 13:18:00,SystemResetWarning,0824.7,5.00,000.00,018.6,018.0,000.0,026.9,020.1,18.6,0000.0,0000.75,0000.94,0000.67
2024-02-04 13:19:00,SystemResetWarning,0824.8,5.00,000.00,018.5,017.9,000.0,026.9,020.1,18.7,0000.0,0000.76,0000.99,0000.67
2024-02-04 13:20:00,SystemResetWarning,0824.7,5.01,000.00,018.5,017.9,000.0,026.9,020.0,18.6,0000.0,0000.75,0000.99,0000.66
2024-02-04 13:21:00,SystemResetWarning,0824.7,5.02,000.00,018.5,017.8,000.0,026.9,020.0,18.4,0000.0,0000.73,0000.99,0000.64
2024-02-04 13:22:00,SystemResetWarning,0824.7,5.00,000.00,018.4,017.8,000.0,026.9,020.0,18.4,0000.0,0000.69,0000.95,0000.61
2024-02-04 13:23:00,SystemResetWarning,0824.8,4.99,000.00,018.4,017.7,000.0,026.9,020.0,18.4,0000.0,0000.66,0000.91,0000.59
2024-02-04 13:24:00,SystemResetWarning,0824.8,5.00,000.00,018.4,017.7,000.0,026.9,020.0,18.3,0000.0,0000.63,0000.86,0000.56
2024-02-04 13:25:00,SystemResetWarning,0824.9,5.02,000.00,018.4,017.6,000.0,026.9,020.0,18.4,0000.0,0000.60,0000.91,0000.53
2024-02-04 13:26:00,SystemResetWarning,0824.9,5.00,000.00,018.3,017.6,000.0,026.9,020.0,18.5,0000.0,0000.60,0000.93,0000.52
2024-02-04 13:27:00,SystemResetWarning,0824.9,4.99,000.00,018.4,017.9,000.0,027.0,020.3,18.7,0000.0,0000.63,0001.00,0000.54
2024-02-04 13:28:00,SystemResetWarning,0824.9,5.01,000.00,018.6,018.7,000.0,027.1,020.7,18.8,0000.0,0000.65,0001.04,0000.54
2024-02-04 13:29:00,SystemResetWarning,0824.9,5.01,000.00,018.8,019.2,000.0,027.2,021.1,18.6,0000.0,0000.69,0001.21,0000.55
2024-02-04 13:30:00,SystemResetWarning,0824.9,5.00,000.00,018.9,019.1,000.0,027.1,020.9,18.2,0000.0,0000.74,0001.29,0000.60
2024-02-04 13:31:00,SystemResetWarning,0824.9,4.99,000.00,018.9,018.9,000.0,027.0,020.7,18.0,0000.0,0000.81,0001.37,0000.66
2024-02-04 13:32:00,SystemResetWarning,0824.9,4.99,000.00,018.8,018.8,000.0,027.0,020.6,18.0,0000.0,0000.86,0001.43,0000.70
2024-02-04 13:33:00,SystemResetWarning,0824.9,5.01,000.00,018.8,018.6,000.0,027.0,020.5,17.8,0000.0,0000.88,0001.49,0000.70
2024-02-04 13:34:00,SystemResetWarning,0824.9,5.00,000.00,018.8,018.4,000.0,027.0,020.4,18.0,0000.0,0000.88,0001.52,0000.69
2024-02-04 13:35:00,SystemResetWarning,0824.9,4.99,000.00,018.7,018.3,000.0,027.0,020.4,18.2,0000.0,0000.89,0001.55,0000.69
2024-02-04 13:36:00,SystemResetWarning,0825.0,5.00,000.00,018.7,018.2,000.0,027.0,020.3,18.2,0000.0,0000.90,0001.46,0000.70
2024-02-04 13:37:00,SystemResetWarning,0825.0,4.99,000.00,018.7,018.1,000.0,027.0,020.2,17.7,0000.0,0000.91,0001.47,0000.71
2024-02-04 13:38:00,SystemResetWarning,0825.0,5.00,000.00,018.6,018.0,000.0,026.9,020.2,17.5,0000.0,0000.87,0001.40,0000.69
2024-02-04 13:39:00,SystemResetWarning,0825.0,5.01,000.00,018.6,018.0,000.0,026.9,020.2,17.9,0000.0,0000.84,0001.35,0000.68
2024-02-04 13:40:00,SystemResetWarning,0825.0,5.01,000.00,018.5,017.9,000.0,026.9,020.1,18.0,0000.0,0000.79,0001.16,0000.65
2024-02-04 13:41:00,SystemResetWarning,0825.0,4.99,000.00,018.5,017.9,000.0,026.9,020.1,18.0,0000.0,0000.72,0001.01,0000.60
2024-02-04 13:42:00,SystemResetWarning,0825.1,4.99,000.00,018.5,017.8,000.0,026.9,020.0,18.0,0000.0,0000.66,0000.97,0000.56
2024-02-04 13:43:00,SystemResetWarning,0825.0,5.01,000.00,018.4,017.8,000.0,026.9,020.0,18.0,0000.0,0000.62,0000.92,0000.52
2024-02-04 13:44:00,SystemResetWarning,0825.1,5.01,000.00,018.4,017.7,000.0,026.9,020.0,18.0,0000.0,0000.60,0000.88,0000.51
2024-02-04 13:45:00,SystemResetWarning,0825.1,5.01,000.00,018.4,017.7,000.0,026.9,020.0,18.1,0000.0,0000.62,0000.99,0000.53
2024-02-04 13:46:00,SystemResetWarning,0825.1,4.99,000.00,018.4,017.7,000.0,026.9,020.0,18.1,0000.0,0000.62,0001.02,0000.53
2024-02-04 13:47:00,SystemResetWarning,0825.1,4.99,000.00,018.3,017.6,000.0,026.9,020.0,18.1,0000.0,0000.64,0001.08,0000.53
2024-02-04 13:48:00,SystemResetWarning,0825.1,5.02,000.00,018.3,017.6,000.0,026.9,020.0,18.1,0000.0,0000.62,0001.05,0000.51
2024-02-04 13:49:00,SystemResetWarning,0825.1,5.00,000.00,018.3,017.7,000.0,027.0,020.1,18.1,0000.0,0000.60,0001.02,0000.50
2024-02-04 13:50:00,SystemResetWarning,0825.2,5.00,000.00,018.5,018.4,000.0,027.1,020.6,17.9,0000.0,0000.60,0001.03,0000.50
2024-02-04 13:51:00,SystemResetWarning,0825.3,5.00,000.00,018.7,019.1,000.0,027.1,021.0,17.7,0000.0,0000.61,0001.04,0000.50
2024-02-04 13:52:00,SystemResetWarning,0825.2,5.00,000.00,018.8,019.2,000.0,027.1,021.0,17.5,0000.0,0000.63,0001.08,0000.51
2024-02-04 13:53:00,SystemResetWarning,0825.2,4.99,000.00,018.8,019.0,000.0,027.0,020.8,17.4,0000.0,0000.62,0001.05,0000.50
2024-02-04 13:54:00,SystemResetWarning,0825.2,4.99,000.00,018.8,018.8,000.0,027.0,020.6,17.4,0000.0,0000.61,0001.00,0000.50
2024-02-04 13:55:00,SystemResetWarning,0825.2,5.01,000.00,018.8,018.6,000.0,027.0,020.5,17.4,0000.0,0000.60,0000.98,0000.51
2024-02-04 13:56:00,SystemResetWarning,0825.2,5.01,000.00,018.8,018.5,000.0,027.0,020.4,17.6,0000.0,0000.59,0000.88,0000.50
2024-02-04 13:57:00,SystemResetWarning,0825.3,5.00,000.00,018.8,018.4,000.0,027.0,020.4,17.5,0000.0,0000.59,0000.81,0000.50
2024-02-04 13:58:00,SystemResetWarning,0825.3,4.99,000.00,018.7,018.3,000.0,027.0,020.3,17.5,0000.0,0000.56,0000.75,0000.50
2024-02-04 13:59:00,SystemResetWarning,0825.3,4.99,000.00,018.7,018.2,000.0,027.0,020.3,17.6,0000.0,0000.56,0000.74,0000.51
